Regional Weather Roundup
Issued by NWS

Home | Current Version | Previous Version | Text Only | Print | Product List | Glossary Off
Versions: 1 2 3 4 5 6 7 8 9 10 11 12 13 14 15 16 17 18 19 20 21 22 23 24 25 26 27 28 29 30 31 32 33 34 35 36 37 38 39 40 41 42 43 44 45 46 47 48 49 50

000
ASUS43 KBIS 110910
RWRND

NORTH DAKOTA REGIONAL WEATHER ROUNDUP
NATIONAL WEATHER SERVICE BISMARCK ND
300 AM CST MON DEC 11 2017

NOTE: "FAIR" INDICATES FEW OR NO CLOUDS BELOW 12,000 FEET WITH NO
SIGNIFICANT WEATHER AND/OR OBSTRUCTIONS TO VISIBILITY.


NDZ001>003-009>011-017-111000-
NORTHWEST NORTH DAKOTA

CITY           SKY/WX    TMP DP  RH WIND       PRES   REMARKS
WILLISTON      CLOUDY    40  29  64 NW31G45   30.08R
MINOT          CLOUDY    41  33  73 NW26G37   29.88R
MINOT AFB      CLOUDY    40  32  75 NW24G38   29.87R
$$

NDZ018>021-031>035-040>046-111000-
SOUTHWEST NORTH DAKOTA

CITY           SKY/WX    TMP DP  RH WIND       PRES   REMARKS
BISMARCK       CLOUDY    45  33  63 NW30G41   29.91R
DICKINSON      CLOUDY    39  28  64 NW26G36   30.01R
GARRISON         N/A     39  32  76 NW35G43   29.91R
HETTINGER ARPT CLOUDY    39  24  55 NW32G46   30.06R
$$

NDZ004>008-012>016-024-026-027-054-111000-
NORTHEAST NORTH DAKOTA

CITY           SKY/WX    TMP DP  RH WIND       PRES   REMARKS
GRAND FORKS    CLOUDY    37  31  78 NW15      29.68R
GRND FRKS AFB  DRIZZLE   37  30  75 NW14G23   29.68R
DEVILS LAKE    MIX PCPN  36  34  93 NW22G30   29.75R
$$

NDZ022-023-025-028>030-036>039-047>053-111000-
SOUTHEAST NORTH DAKOTA

CITY           SKY/WX    TMP DP  RH WIND       PRES   REMARKS
FARGO          CLOUDY    34  31  88 S6        29.70S
JAMESTOWN      LGT RAIN  38  32  79 NW24G30   29.75R
$$




USA.gov is the U.S. government's official web portal to all federal, state and local government web resources and services.